GLOBALSTAR M062 [-]

Last updated on Fri Dec 29 2023 00:02:56 GMT+0000 (Coordinated Universal Time)

1 26082U 00008B 23361.84511081 -.00000014 00000+0 60188-3 0 9990 2 26082 51.9831 235.8890 0008109 49.4090 31.0019 12.43424413429777
UTC large
Height (km)
Speed (km/s)
/
Latitude / Longitude
Inclination (degrees)
Orbital Period (minutes)
Azimuth
Elevation
Range (km)
Doppler Factor

Next 0 passes for location: London (51.5072 / 0.1276)

Sorry there are no passes over London.